Time,TemperatureF,DewpointF,PressureIn,WindDirection,WindDirectionDegrees,WindSpeedMPH,WindSpeedGustMPH,Humidity,HourlyPrecipIn,Conditions,Clouds,dailyrainin,SoftwareType,DateUTC
2013-04-08 00:01:00,57.9,46.2,29.66,ESE,112,5.8,5.8,65,0.00,CLR,,0.00,WeatherDisplay:10.37,2013-04-08 05:01:00,
2013-04-08 00:06:00,57.9,46.2,29.66,ESE,112,2.3,5.8,65,0.00,CLR,,0.00,WeatherDisplay:10.37,2013-04-08 05:06:00,
2013-04-08 00:11:00,57.9,46.2,29.66,SE,135,5.8,5.8,65,0.00,CLR,,0.00,WeatherDisplay:10.37,2013-04-08 05:11:00,
2013-04-08 00:16:00,57.9,46.2,29.66,SE,135,5.8,5.8,65,0.00,CLR,,0.00,WeatherDisplay:10.37,2013-04-08 05:16:00,
2013-04-08 00:21:00,57.9,46.2,29.66,SE,135,5.8,5.8,65,0.00,CLR,,0.00,WeatherDisplay:10.37,2013-04-08 05:21:00,
2013-04-08 00:26:00,57.9,46.2,29.66,SE,135,5.8,5.8,65,0.00,CLR,,0.00,WeatherDisplay:10.37,2013-04-08 05:26:00,
2013-04-08 00:31:00,57.9,46.2,29.66,SSE,158,4.6,6.7,65,0.00,CLR,,0.00,WeatherDisplay:10.37,2013-04-08 05:31:00,
2013-04-08 00:36:00,57.9,46.2,29.66,SSE,158,4.6,6.7,65,0.00,CLR,,0.00,WeatherDisplay:10.37,2013-04-08 05:36:00,
2013-04-08 00:41:00,57.9,46.2,29.66,SSE,158,4.6,6.7,65,0.00,CLR,,0.00,WeatherDisplay:10.37,2013-04-08 05:41:00,
2013-04-08 00:46:00,57.9,46.2,29.66,SSE,158,4.6,6.7,65,0.00,CLR,,0.00,WeatherDisplay:10.37,2013-04-08 05:46:00,
2013-04-08 00:51:00,57.9,46.2,29.66,SSE,158,4.6,6.7,65,0.00,CLR,,0.00,WeatherDisplay:10.37,2013-04-08 05:51:00,
2013-04-08 00:56:00,57.9,46.2,29.66,SSE,158,4.6,6.7,65,0.00,CLR,,0.00,WeatherDisplay:10.37,2013-04-08 05:56:00,
2013-04-08 01:01:00,57.9,46.2,29.66,SSE,158,4.6,6.7,65,0.00,CLR,,0.00,WeatherDisplay:10.37,2013-04-08 06:01:00,
2013-04-08 01:06:00,57.9,46.2,29.66,SSE,158,4.6,6.7,65,0.00,CLR,,0.00,WeatherDisplay:10.37,2013-04-08 06:06:00,
2013-04-08 01:11:00,57.9,46.2,29.66,South,180,9.2,9.2,65,0.00,CLR,,0.00,WeatherDisplay:10.37,2013-04-08 06:11:00,
2013-04-08 01:16:00,57.9,46.2,29.66,South,180,9.2,9.2,65,0.00,CLR,,0.00,WeatherDisplay:10.37,2013-04-08 06:16:00,
2013-04-08 01:21:00,57.9,46.2,29.66,South,180,9.2,9.2,65,0.00,CLR,,0.00,WeatherDisplay:10.37,2013-04-08 06:21:00,
2013-04-08 01:26:00,57.9,46.2,29.66,South,180,9.2,9.2,65,0.00,CLR,,0.00,WeatherDisplay:10.37,2013-04-08 06:26:00,
2013-04-08 01:31:00,57.9,46.2,29.66,South,180,9.2,9.2,65,0.00,CLR,,0.00,WeatherDisplay:10.37,2013-04-08 06:31:00,
2013-04-08 01:37:00,57.0,45.4,29.66,SSW,202,9.2,10.4,65,0.00,CLR,,0.00,WeatherDisplay:10.37,2013-04-08 06:37:00,
2013-04-08 01:42:00,57.0,45.4,29.66,SSW,202,8.1,8.7,65,0.00,CLR,,0.00,WeatherDisplay:10.37,2013-04-08 06:42:00,
2013-04-08 01:47:00,57.0,45.4,29.66,SSW,202,8.1,8.7,65,0.00,CLR,,0.00,WeatherDisplay:10.37,2013-04-08 06:47:00,
2013-04-08 01:52:00,57.0,45.4,29.66,SSW,202,8.1,8.7,65,0.00,CLR,,0.00,WeatherDisplay:10.37,2013-04-08 06:52:00,
2013-04-08 01:57:00,57.0,45.4,29.66,SSW,202,8.1,8.7,65,0.00,CLR,,0.00,WeatherDisplay:10.37,2013-04-08 06:57:00,
2013-04-08 02:02:00,57.0,45.4,29.66,SW,225,9.2,9.2,65,0.00,CLR,,0.00,WeatherDisplay:10.37,2013-04-08 07:02:00,
2013-04-08 02:07:00,57.0,45.4,29.66,SSW,202,10.4,10.4,65,0.00,CLR,,0.00,WeatherDisplay:10.37,2013-04-08 07:07:00,
2013-04-08 02:12:00,57.0,45.4,29.66,SW,225,8.1,10.7,65,0.00,CLR,,0.00,WeatherDisplay:10.37,2013-04-08 07:12:00,
2013-04-08 02:17:00,57.0,45.4,29.66,SW,225,8.1,10.7,65,0.00,CLR,,0.00,WeatherDisplay:10.37,2013-04-08 07:17:00,
2013-04-08 02:22:00,57.0,45.4,29.66,SW,225,8.1,10.7,65,0.00,CLR,,0.00,WeatherDisplay:10.37,2013-04-08 07:22:00,
2013-04-08 02:27:00,57.0,45.4,29.66,SSW,202,8.1,8.2,65,0.00,CLR,,0.00,WeatherDisplay:10.37,2013-04-08 07:27:00,
2013-04-08 02:32:00,57.0,45.4,29.66,SSW,202,8.1,8.2,65,0.00,CLR,,0.00,WeatherDisplay:10.37,2013-04-08 07:32:00,
2013-04-08 02:37:00,57.0,45.4,29.66,SSW,202,8.1,8.2,65,0.00,CLR,,0.00,WeatherDisplay:10.37,2013-04-08 07:37:00,
2013-04-08 02:42:00,57.0,45.4,29.66,SW,225,8.1,8.4,65,0.00,CLR,,0.00,WeatherDisplay:10.37,2013-04-08 07:42:00,
2013-04-08 02:47:00,57.0,45.4,29.66,SW,225,0.0,0.0,65,0.00,CLR,,0.00,WeatherDisplay:10.37,2013-04-08 07:47:00,
2013-04-08 02:52:00,57.0,45.4,29.66,SW,225,0.0,0.0,65,0.00,CLR,,0.00,WeatherDisplay:10.37,2013-04-08 07:52:00,
2013-04-08 02:57:00,57.0,45.4,29.66,WSW,248,9.2,0.0,65,0.00,CLR,,0.00,WeatherDisplay:10.37,2013-04-08 07:57:00,
2013-04-08 03:02:00,57.0,45.4,29.66,WSW,248,9.2,0.0,65,0.00,CLR,,0.00,WeatherDisplay:10.37,2013-04-08 08:02:00,
2013-04-08 03:07:00,57.0,45.4,29.66,WSW,248,12.7,12.7,65,0.00,CLR,,0.00,WeatherDisplay:10.37,2013-04-08 08:07:00,
2013-04-08 03:12:00,57.0,45.4,29.66,WSW,248,12.7,12.7,65,0.00,CLR,,0.00,WeatherDisplay:10.37,2013-04-08 08:12:00,
2013-04-08 03:17:00,57.0,45.4,29.66,WSW,248,8.1,9.0,65,0.00,CLR,,0.00,WeatherDisplay:10.37,2013-04-08 08:17:00,
2013-04-08 03:22:00,57.0,45.4,29.66,WSW,248,8.1,9.0,65,0.00,CLR,,0.00,WeatherDisplay:10.37,2013-04-08 08:22:00,
2013-04-08 03:27:00,57.0,45.4,29.66,WSW,248,8.1,9.0,65,0.00,CLR,,0.00,WeatherDisplay:10.37,2013-04-08 08:27:00,
2013-04-08 03:32:00,57.0,45.4,29.66,WSW,248,6.9,9.0,65,0.00,CLR,,0.00,WeatherDisplay:10.37,2013-04-08 08:32:00,
2013-04-08 03:37:00,57.0,45.4,29.66,WSW,248,6.9,9.0,65,0.00,CLR,,0.00,WeatherDisplay:10.37,2013-04-08 08:37:00,
2013-04-08 03:42:00,57.0,45.4,29.66,WSW,248,6.9,9.0,65,0.00,CLR,,0.00,WeatherDisplay:10.37,2013-04-08 08:42:00,
2013-04-08 03:47:00,57.0,45.4,29.66,WSW,248,6.9,9.0,65,0.00,CLR,,0.00,WeatherDisplay:10.37,2013-04-08 08:47:00,
2013-04-08 03:52:00,57.0,45.4,29.66,WSW,248,6.9,9.0,65,0.00,CLR,,0.00,WeatherDisplay:10.37,2013-04-08 08:52:00,
2013-04-08 03:57:00,57.0,45.4,29.66,WSW,248,6.9,9.0,65,0.00,CLR,,0.00,WeatherDisplay:10.37,2013-04-08 08:57:00,
2013-04-08 04:02:00,54.0,42.5,29.66,WSW,248,6.9,9.0,65,0.00,CLR,,0.00,WeatherDisplay:10.37,2013-04-08 09:02:00,
2013-04-08 04:07:00,54.0,42.5,29.66,WSW,248,6.9,9.0,65,0.00,CLR,,0.00,WeatherDisplay:10.37,2013-04-08 09:07:00,
2013-04-08 04:12:00,54.0,42.5,29.66,WSW,248,6.9,9.0,65,0.00,CLR,,0.00,WeatherDisplay:10.37,2013-04-08 09:12:00,
2013-04-08 04:17:00,54.0,42.5,29.66,SW,225,0.0,6.9,65,0.00,CLR,,0.00,WeatherDisplay:10.37,2013-04-08 09:17:00,
2013-04-08 04:22:00,54.0,42.5,29.66,SW,225,0.0,6.9,65,0.00,CLR,,0.00,WeatherDisplay:10.37,2013-04-08 09:22:00,
2013-04-08 04:27:00,54.0,42.5,29.66,SW,225,0.0,0.0,65,0.00,CLR,,0.00,WeatherDisplay:10.37,2013-04-08 09:27:00,
2013-04-08 04:32:00,54.0,42.5,29.66,SW,225,0.0,0.0,65,0.00,CLR,,0.00,WeatherDisplay:10.37,2013-04-08 09:32:00,
2013-04-08 04:37:00,54.0,42.5,29.66,SW,225,0.0,0.0,65,0.00,CLR,,0.00,WeatherDisplay:10.37,2013-04-08 09:37:00,
2013-04-08 04:42:00,54.0,42.5,29.66,SW,225,0.0,0.0,65,0.00,CLR,,0.00,WeatherDisplay:10.37,2013-04-08 09:42:00,
2013-04-08 04:47:00,54.0,42.5,29.66,SW,225,0.0,0.0,65,0.00,CLR,,0.00,WeatherDisplay:10.37,2013-04-08 09:47:00,
2013-04-08 04:52:00,54.0,42.5,29.66,SW,225,0.0,0.0,65,0.00,CLR,,0.00,WeatherDisplay:10.37,2013-04-08 09:52:00,
2013-04-08 04:57:00,54.0,42.5,29.66,SW,225,1.1,0.0,65,0.00,CLR,,0.00,WeatherDisplay:10.37,2013-04-08 09:57:00,
2013-04-08 05:03:00,54.0,51.4,29.66,SW,225,1.1,0.0,91,0.00,CLR,,0.00,WeatherDisplay:10.37,2013-04-08 10:03:00,
2013-04-08 05:08:00,54.0,51.4,29.66,SW,225,1.1,0.0,91,0.00,CLR,,0.00,WeatherDisplay:10.37,2013-04-08 10:08:00,
2013-04-08 05:13:00,54.0,51.4,29.66,SW,225,1.1,0.0,91,0.00,CLR,,0.00,WeatherDisplay:10.37,2013-04-08 10:13:00,
2013-04-08 05:18:00,54.0,51.4,29.66,SW,225,1.1,0.0,91,0.00,CLR,,0.00,WeatherDisplay:10.37,2013-04-08 10:18:00,
2013-04-08 05:23:00,51.3,48.7,29.66,SW,225,0.0,1.4,91,0.00,CLR,,0.00,WeatherDisplay:10.37,2013-04-08 10:23:00,
2013-04-08 05:28:00,51.3,48.7,29.66,SW,225,0.0,1.4,91,0.00,CLR,,0.00,WeatherDisplay:10.37,2013-04-08 10:28:00,
2013-04-08 05:33:00,51.3,48.7,29.66,SW,225,0.0,1.4,91,0.00,CLR,,0.00,WeatherDisplay:10.37,2013-04-08 10:33:00,
2013-04-08 05:38:00,51.3,48.7,29.66,SW,225,0.0,0.0,91,0.00,CLR,,0.00,WeatherDisplay:10.37,2013-04-08 10:38:00,
2013-04-08 05:43:00,51.3,48.7,29.66,SW,225,0.0,0.0,91,0.00,CLR,,0.00,WeatherDisplay:10.37,2013-04-08 10:43:00,
2013-04-08 05:48:00,51.3,48.7,29.66,SW,225,0.0,0.0,91,0.00,CLR,,0.00,WeatherDisplay:10.37,2013-04-08 10:48:00,
2013-04-08 05:53:00,51.3,48.7,29.66,SW,225,0.0,0.0,91,0.00,CLR,,0.00,WeatherDisplay:10.37,2013-04-08 10:53:00,
2013-04-08 05:58:00,51.3,48.7,29.66,SW,225,0.0,0.0,91,0.00,CLR,,0.00,WeatherDisplay:10.37,2013-04-08 10:58:00,
2013-04-08 06:03:00,51.3,48.7,29.66,SW,225,0.0,0.0,91,0.00,CLR,,0.00,WeatherDisplay:10.37,2013-04-08 11:03:00,
2013-04-08 06:08:00,51.3,48.7,29.66,SW,225,0.0,0.0,91,0.00,CLR,,0.00,WeatherDisplay:10.37,2013-04-08 11:08:00,
2013-04-08 06:13:00,51.3,48.7,29.66,SW,225,0.0,0.0,91,0.00,CLR,,0.00,WeatherDisplay:10.37,2013-04-08 11:13:00,
2013-04-08 06:18:00,51.3,48.7,29.66,SW,225,0.0,0.0,91,0.00,CLR,,0.00,WeatherDisplay:10.37,2013-04-08 11:18:00,
2013-04-08 06:23:00,51.3,48.7,29.66,SW,225,0.0,0.0,91,0.00,CLR,,0.00,WeatherDisplay:10.37,2013-04-08 11:23:00,
2013-04-08 06:29:00,51.3,48.7,29.66,SW,225,0.0,0.0,91,0.00,CLR,,0.00,WeatherDisplay:10.37,2013-04-08 11:29:00,
2013-04-08 06:34:00,51.3,48.7,29.66,SW,225,0.0,0.0,91,0.00,CLR,,0.00,WeatherDisplay:10.37,2013-04-08 11:34:00,
2013-04-08 06:39:00,51.3,48.7,29.66,SW,225,0.0,0.0,91,0.00,CLR,,0.00,WeatherDisplay:10.37,2013-04-08 11:39:00,
2013-04-08 06:44:00,47.3,44.8,29.66,SW,225,0.0,0.0,91,0.00,CLR,,0.00,WeatherDisplay:10.37,2013-04-08 11:44:00,
2013-04-08 06:49:00,47.3,44.8,29.66,SW,225,0.0,0.0,91,0.00,CLR,,0.00,WeatherDisplay:10.37,2013-04-08 11:49:00,
2013-04-08 06:54:00,47.3,44.8,29.66,SW,225,0.0,0.0,91,0.00,CLR,,0.00,WeatherDisplay:10.37,2013-04-08 11:54:00,
2013-04-08 06:59:00,45.9,43.4,29.66,SW,225,0.0,0.0,91,0.00,CLR,,0.00,WeatherDisplay:10.37,2013-04-08 11:59:00,
2013-04-08 07:04:00,45.9,43.4,29.66,SW,225,0.0,0.0,91,0.00,CLR,,0.00,WeatherDisplay:10.37,2013-04-08 12:04:00,
2013-04-08 07:10:00,45.0,42.5,29.66,SW,225,0.0,0.0,91,0.00,CLR,,0.00,WeatherDisplay:10.37,2013-04-08 12:10:00,
2013-04-08 07:15:00,44.8,42.3,29.66,SW,225,0.0,0.0,91,0.00,CLR,,0.00,WeatherDisplay:10.37,2013-04-08 12:15:00,
2013-04-08 07:20:00,44.8,42.3,29.66,SW,225,0.0,0.0,91,0.00,CLR,,0.00,WeatherDisplay:10.37,2013-04-08 12:20:00,
2013-04-08 07:25:00,44.8,42.3,29.66,SW,225,0.0,0.0,91,0.00,CLR,,0.00,WeatherDisplay:10.37,2013-04-08 12:25:00,
2013-04-08 07:30:00,44.8,42.3,29.66,SW,225,0.0,0.0,91,0.00,CLR,,0.00,WeatherDisplay:10.37,2013-04-08 12:30:00,
2013-04-08 07:35:00,44.8,42.3,29.66,SW,225,0.0,0.0,91,0.00,CLR,,0.00,WeatherDisplay:10.37,2013-04-08 12:35:00,
2013-04-08 07:40:00,44.8,42.3,29.66,SW,225,0.0,0.0,91,0.00,CLR,,0.00,WeatherDisplay:10.37,2013-04-08 12:40:00,
2013-04-08 07:45:00,44.8,42.3,29.66,SW,225,0.0,0.0,91,0.00,CLR,,0.00,WeatherDisplay:10.37,2013-04-08 12:45:00,
2013-04-08 07:50:00,44.8,42.3,29.66,SW,225,0.0,0.0,91,0.00,CLR,,0.00,WeatherDisplay:10.37,2013-04-08 12:50:00,
2013-04-08 07:56:00,44.8,42.3,29.66,SW,225,0.0,0.0,91,0.00,CLR,,0.00,WeatherDisplay:10.37,2013-04-08 12:56:00,
2013-04-08 08:01:00,44.8,42.3,29.66,SW,225,0.0,0.0,91,0.00,CLR,,0.00,WeatherDisplay:10.37,2013-04-08 13:01:00,
2013-04-08 08:06:00,44.8,42.3,29.66,SW,225,0.0,0.0,91,0.00,CLR,,0.00,WeatherDisplay:10.37,2013-04-08 13:06:00,
2013-04-08 08:11:00,44.8,42.3,29.66,SW,225,0.0,0.0,91,0.00,CLR,,0.00,WeatherDisplay:10.37,2013-04-08 13:11:00,
2013-04-08 08:16:00,44.8,42.3,29.69,SW,225,0.0,0.0,91,0.00,CLR,,0.00,WeatherDisplay:10.37,2013-04-08 13:16:00,
2013-04-08 08:21:00,44.8,42.3,29.69,SW,225,0.0,0.0,91,0.00,CLR,,0.00,WeatherDisplay:10.37,2013-04-08 13:21:00,
2013-04-08 08:26:00,44.8,42.3,29.69,SSW,202,0.0,0.0,91,0.00,CLR,,0.00,WeatherDisplay:10.37,2013-04-08 13:26:00,
2013-04-08 08:31:00,44.8,42.3,29.69,SSW,202,0.0,0.0,91,0.00,CLR,,0.00,WeatherDisplay:10.37,2013-04-08 13:31:00,
2013-04-08 08:36:00,44.8,42.3,29.69,SSW,202,0.0,0.0,91,0.00,CLR,,0.00,WeatherDisplay:10.37,2013-04-08 13:36:00,
2013-04-08 08:42:00,44.8,42.3,29.69,SSW,202,0.0,0.0,91,0.00,CLR,,0.00,WeatherDisplay:10.37,2013-04-08 13:42:00,
2013-04-08 08:47:00,44.8,42.3,29.69,SSW,202,0.0,0.0,91,0.00,CLR,,0.00,WeatherDisplay:10.37,2013-04-08 13:47:00,
2013-04-08 08:52:00,44.8,42.3,29.69,SSW,202,0.0,0.0,91,0.00,CLR,,0.00,WeatherDisplay:10.37,2013-04-08 13:52:00,
2013-04-08 08:58:00,44.8,42.3,29.69,SSW,202,0.0,0.0,91,0.00,CLR,,0.00,WeatherDisplay:10.37,2013-04-08 13:58:00,
2013-04-08 09:03:00,44.8,42.3,29.69,South,180,0.0,0.0,91,0.00,CLR,,0.00,WeatherDisplay:10.37,2013-04-08 14:03:00,
2013-04-08 09:08:00,44.8,42.3,29.69,South,180,0.0,0.0,91,0.00,CLR,,0.00,WeatherDisplay:10.37,2013-04-08 14:08:00,
2013-04-08 09:13:00,44.8,43.4,29.69,South,180,0.0,0.0,95,0.00,CLR,,0.00,WeatherDisplay:10.37,2013-04-08 14:13:00,
2013-04-08 09:18:00,44.8,43.4,29.69,South,180,0.0,0.0,95,0.00,CLR,,0.00,WeatherDisplay:10.37,2013-04-08 14:18:00,
2013-04-08 09:23:00,44.8,43.4,29.69,South,180,0.0,0.0,95,0.00,CLR,,0.00,WeatherDisplay:10.37,2013-04-08 14:23:00,
2013-04-08 09:28:00,44.8,43.4,29.69,South,180,0.0,0.0,95,0.00,CLR,,0.00,WeatherDisplay:10.37,2013-04-08 14:28:00,
2013-04-08 09:33:00,44.8,43.4,29.69,South,180,0.0,0.0,95,0.00,CLR,,0.00,WeatherDisplay:10.37,2013-04-08 14:33:00,
2013-04-08 09:38:00,44.8,43.4,29.69,South,180,0.0,0.0,95,0.00,CLR,,0.00,WeatherDisplay:10.37,2013-04-08 14:38:00,
2013-04-08 09:43:00,44.8,43.4,29.69,South,180,0.0,0.0,95,0.00,CLR,,0.00,WeatherDisplay:10.37,2013-04-08 14:43:00,
2013-04-08 09:48:00,44.8,43.4,29.69,WSW,248,0.0,0.0,95,0.00,CLR,,0.00,WeatherDisplay:10.37,2013-04-08 14:48:00,
2013-04-08 09:53:00,44.8,42.6,29.69,WSW,248,0.0,0.0,92,0.00,CLR,,0.00,WeatherDisplay:10.37,2013-04-08 14:53:00,
2013-04-08 09:58:00,44.8,42.6,29.69,WSW,248,0.0,0.0,92,0.00,CLR,,0.00,WeatherDisplay:10.37,2013-04-08 14:58:00,
2013-04-08 10:03:00,44.8,42.6,29.69,West,270,0.0,0.0,92,0.00,CLR,,0.00,WeatherDisplay:10.37,2013-04-08 15:03:00,
2013-04-08 10:08:00,44.8,42.6,29.69,West,270,0.0,0.0,92,0.00,CLR,,0.00,WeatherDisplay:10.37,2013-04-08 15:08:00,
2013-04-08 10:13:00,44.8,42.6,29.69,West,270,0.0,0.0,92,0.00,CLR,,0.00,WeatherDisplay:10.37,2013-04-08 15:13:00,
2013-04-08 10:18:00,44.8,42.6,29.69,West,270,0.0,0.0,92,0.00,CLR,,0.00,WeatherDisplay:10.37,2013-04-08 15:18:00,
2013-04-08 10:23:00,44.8,42.6,29.69,West,270,0.0,0.0,92,0.00,CLR,,0.00,WeatherDisplay:10.37,2013-04-08 15:23:00,
2013-04-08 10:28:00,44.8,42.6,29.69,West,270,0.0,0.0,92,0.00,CLR,,0.00,WeatherDisplay:10.37,2013-04-08 15:28:00,
2013-04-08 10:33:00,44.8,42.6,29.69,NW,315,0.0,0.0,92,0.00,CLR,,0.00,WeatherDisplay:10.37,2013-04-08 15:33:00,
2013-04-08 10:38:00,44.8,42.6,29.69,NW,315,0.0,0.0,92,0.00,CLR,,0.00,WeatherDisplay:10.37,2013-04-08 15:38:00,
2013-04-08 10:43:00,44.8,42.6,29.69,SSW,202,0.0,0.0,92,0.00,CLR,,0.00,WeatherDisplay:10.37,2013-04-08 15:43:00,
2013-04-08 10:48:00,44.8,42.6,29.69,SW,225,0.0,0.0,92,0.00,CLR,,0.00,WeatherDisplay:10.37,2013-04-08 15:48:00,
2013-04-08 10:53:00,44.8,42.6,29.69,SW,225,0.0,0.0,92,0.00,CLR,,0.00,WeatherDisplay:10.37,2013-04-08 15:53:00,
2013-04-08 10:58:00,44.8,42.6,29.69,SW,225,0.0,0.0,92,0.00,CLR,,0.00,WeatherDisplay:10.37,2013-04-08 15:58:00,
2013-04-08 11:03:00,44.8,42.6,29.69,SW,225,0.0,0.0,92,0.00,CLR,,0.00,WeatherDisplay:10.37,2013-04-08 16:03:00,
2013-04-08 11:08:00,44.8,42.6,29.69,SW,225,0.0,0.0,92,0.00,CLR,,0.00,WeatherDisplay:10.37,2013-04-08 16:08:00,
2013-04-08 11:13:00,44.8,42.6,29.69,SW,225,0.0,0.0,92,0.00,CLR,,0.00,WeatherDisplay:10.37,2013-04-08 16:13:00,
2013-04-08 11:18:00,44.8,42.6,29.69,SSW,202,0.0,0.0,92,0.00,CLR,,0.00,WeatherDisplay:10.37,2013-04-08 16:18:00,
2013-04-08 11:23:00,44.8,42.6,29.69,SSW,202,0.0,0.0,92,0.00,CLR,,0.00,WeatherDisplay:10.37,2013-04-08 16:23:00,
2013-04-08 11:28:00,44.8,42.6,29.69,SSW,202,0.0,0.0,92,0.00,CLR,,0.00,WeatherDisplay:10.37,2013-04-08 16:28:00,
2013-04-08 11:33:00,44.8,42.6,29.69,SSW,202,0.0,0.0,92,0.00,CLR,,0.00,WeatherDisplay:10.37,2013-04-08 16:33:00,
2013-04-08 11:38:00,44.8,42.6,29.69,SSW,202,0.0,0.0,92,0.00,CLR,,0.00,WeatherDisplay:10.37,2013-04-08 16:38:00,
2013-04-08 11:43:00,44.8,42.6,29.69,SSW,202,0.0,0.0,92,0.00,CLR,,0.00,WeatherDisplay:10.37,2013-04-08 16:43:00,
2013-04-08 11:49:00,44.8,42.6,29.69,SSW,202,0.0,0.0,92,0.00,CLR,,0.00,WeatherDisplay:10.37,2013-04-08 16:49:00,
2013-04-08 11:54:00,44.8,42.6,29.69,SSW,202,0.0,0.0,92,0.00,CLR,,0.00,WeatherDisplay:10.37,2013-04-08 16:54:00,
2013-04-08 11:59:00,44.8,42.6,29.69,SSE,158,0.0,0.0,92,0.00,CLR,,0.00,WeatherDisplay:10.37,2013-04-08 16:59:00,
2013-04-08 12:04:00,44.8,42.6,29.69,SSW,202,0.0,0.0,92,0.00,CLR,,0.00,WeatherDisplay:10.37,2013-04-08 17:04:00,
2013-04-08 12:09:00,44.8,42.6,29.69,SSW,202,0.0,0.0,92,0.00,CLR,,0.00,WeatherDisplay:10.37,2013-04-08 17:09:00,
2013-04-08 12:14:00,44.8,42.6,29.69,SSW,202,0.0,0.0,92,0.00,CLR,,0.00,WeatherDisplay:10.37,2013-04-08 17:14:00,
2013-04-08 12:19:00,44.8,42.6,29.69,SSW,202,0.0,0.0,92,0.00,CLR,,0.00,WeatherDisplay:10.37,2013-04-08 17:19:00,
2013-04-08 12:24:00,44.8,42.6,29.69,SSW,202,0.0,0.0,92,0.00,CLR,,0.00,WeatherDisplay:10.37,2013-04-08 17:24:00,
2013-04-08 12:29:00,44.8,42.6,29.69,West,270,0.0,0.0,92,0.00,CLR,,0.00,WeatherDisplay:10.37,2013-04-08 17:29:00,
2013-04-08 12:34:00,44.8,42.6,29.69,SSW,202,0.0,0.0,92,0.00,CLR,,0.00,WeatherDisplay:10.37,2013-04-08 17:34:00,
2013-04-08 12:39:00,44.8,42.6,29.69,NNW,338,0.0,0.0,92,0.00,CLR,,0.00,WeatherDisplay:10.37,2013-04-08 17:39:00,
2013-04-08 12:45:00,44.8,42.6,29.69,NNW,338,0.0,0.0,92,0.00,CLR,,0.00,WeatherDisplay:10.37,2013-04-08 17:45:00,
2013-04-08 12:50:00,44.8,42.6,29.69,North,0,0.0,0.0,92,0.00,CLR,,0.00,WeatherDisplay:10.37,2013-04-08 17:50:00,
2013-04-08 12:55:00,44.8,42.6,29.69,North,0,0.0,0.0,92,0.00,CLR,,0.00,WeatherDisplay:10.37,2013-04-08 17:55:00,
2013-04-08 13:00:00,44.8,42.6,29.69,North,0,0.0,0.0,92,0.00,CLR,,0.00,WeatherDisplay:10.37,2013-04-08 18:00:00,
2013-04-08 13:05:00,44.8,42.6,29.69,West,270,0.0,0.0,92,0.00,CLR,,0.00,WeatherDisplay:10.37,2013-04-08 18:05:00,
2013-04-08 13:10:00,44.8,42.6,29.69,WSW,248,0.0,0.0,92,0.00,CLR,,0.00,WeatherDisplay:10.37,2013-04-08 18:10:00,
2013-04-08 13:15:00,44.8,42.6,29.69,West,270,0.0,0.0,92,0.00,CLR,,0.00,WeatherDisplay:10.37,2013-04-08 18:15:00,
2013-04-08 13:20:00,44.8,42.6,29.69,West,270,0.0,0.0,92,0.00,CLR,,0.00,WeatherDisplay:10.37,2013-04-08 18:20:00,
2013-04-08 13:25:00,44.8,42.6,29.69,NE,45,0.0,0.0,92,0.00,CLR,,0.00,WeatherDisplay:10.37,2013-04-08 18:25:00,
2013-04-08 13:30:00,44.8,42.6,29.69,NE,45,0.0,0.0,92,0.00,CLR,,0.00,WeatherDisplay:10.37,2013-04-08 18:30:00,
2013-04-08 13:35:00,44.8,42.6,29.69,NE,45,0.0,0.0,92,0.00,CLR,,0.00,WeatherDisplay:10.37,2013-04-08 18:35:00,
2013-04-08 13:40:00,44.8,42.6,29.69,NE,45,0.0,0.0,92,0.00,CLR,,0.00,WeatherDisplay:10.37,2013-04-08 18:40:00,
2013-04-08 13:45:00,44.8,42.6,29.69,NE,45,0.0,0.0,92,0.00,CLR,,0.00,WeatherDisplay:10.37,2013-04-08 18:45:00,
2013-04-08 13:50:00,44.8,42.6,29.69,NE,45,0.0,0.0,92,0.00,CLR,,0.00,WeatherDisplay:10.37,2013-04-08 18:50:00,
2013-04-08 13:55:00,44.8,42.6,29.69,NE,45,0.0,0.0,92,0.00,CLR,,0.00,WeatherDisplay:10.37,2013-04-08 18:55:00,
2013-04-08 14:00:00,44.8,42.6,29.69,SE,135,0.0,0.0,92,0.00,CLR,,0.00,WeatherDisplay:10.37,2013-04-08 19:00:00,
2013-04-08 14:05:00,44.8,42.6,29.69,SSW,202,0.0,0.0,92,0.00,CLR,,0.00,WeatherDisplay:10.37,2013-04-08 19:05:00,
2013-04-08 14:10:00,44.8,42.6,29.69,WSW,248,1.1,0.0,92,0.00,CLR,,0.00,WeatherDisplay:10.37,2013-04-08 19:10:00,
2013-04-08 14:15:00,44.8,42.6,29.69,WSW,248,1.1,0.0,92,0.00,CLR,,0.00,WeatherDisplay:10.37,2013-04-08 19:15:00,
2013-04-08 14:21:00,44.8,42.6,29.69,SE,135,1.1,1.1,92,0.00,CLR,,0.00,WeatherDisplay:10.37,2013-04-08 19:21:00,
2013-04-08 14:26:00,44.8,42.6,29.69,SE,135,0.0,0.9,92,0.00,CLR,,0.00,WeatherDisplay:10.37,2013-04-08 19:26:00,
2013-04-08 14:31:00,44.8,42.6,29.69,SW,225,0.0,0.0,92,0.00,CLR,,0.00,WeatherDisplay:10.37,2013-04-08 19:31:00,
2013-04-08 14:36:00,44.8,42.6,29.69,SW,225,0.0,0.0,92,0.00,CLR,,0.00,WeatherDisplay:10.37,2013-04-08 19:36:00,
2013-04-08 14:41:00,44.8,42.6,29.69,SW,225,0.0,0.0,92,0.00,CLR,,0.00,WeatherDisplay:10.37,2013-04-08 19:41:00,
2013-04-08 14:46:00,44.8,42.6,29.69,SW,225,0.0,0.0,92,0.00,CLR,,0.00,WeatherDisplay:10.37,2013-04-08 19:46:00,
2013-04-08 14:51:00,44.8,24.2,29.69,SSE,158,0.0,0.0,44,0.00,CLR,,0.00,WeatherDisplay:10.37,2013-04-08 19:51:00,
2013-04-08 14:57:00,44.8,24.2,29.69,SSE,158,0.0,0.0,44,0.00,CLR,,0.00,WeatherDisplay:10.37,2013-04-08 19:57:00,
2013-04-08 15:02:00,44.8,24.2,29.69,SSE,158,0.0,0.0,44,0.00,CLR,,0.00,WeatherDisplay:10.37,2013-04-08 20:02:00,
2013-04-08 15:07:00,44.8,24.2,29.69,SE,135,5.8,5.8,44,0.00,CLR,,0.00,WeatherDisplay:10.37,2013-04-08 20:07:00,
2013-04-08 15:12:00,44.8,24.2,29.69,SE,135,5.8,5.8,44,0.00,CLR,,0.00,WeatherDisplay:10.37,2013-04-08 20:12:00,
2013-04-08 15:17:00,44.8,24.2,29.69,SE,135,5.8,5.8,44,0.00,CLR,,0.00,WeatherDisplay:10.37,2013-04-08 20:17:00,
2013-04-08 15:22:00,44.8,24.2,29.69,SSE,158,0.0,6.7,44,0.00,CLR,,0.00,WeatherDisplay:10.37,2013-04-08 20:22:00,
2013-04-08 15:27:00,44.8,24.2,29.69,SSE,158,0.0,6.7,44,0.00,CLR,,0.00,WeatherDisplay:10.37,2013-04-08 20:27:00,
2013-04-08 15:32:00,44.8,24.2,29.69,South,180,0.0,0.0,44,0.00,CLR,,0.00,WeatherDisplay:10.37,2013-04-08 20:32:00,
2013-04-08 15:37:00,44.8,24.2,29.69,South,180,0.0,0.0,44,0.00,CLR,,0.00,WeatherDisplay:10.37,2013-04-08 20:37:00,
2013-04-08 15:42:00,44.8,24.2,29.69,South,180,0.0,0.0,44,0.00,CLR,,0.00,WeatherDisplay:10.37,2013-04-08 20:42:00,
2013-04-08 15:47:00,44.8,24.2,29.69,South,180,0.0,0.0,44,0.00,CLR,,0.00,WeatherDisplay:10.37,2013-04-08 20:47:00,
2013-04-08 15:52:00,44.8,24.2,29.69,SW,225,0.0,0.0,44,0.00,CLR,,0.00,WeatherDisplay:10.37,2013-04-08 20:52:00,
2013-04-08 15:57:00,44.8,24.2,29.69,South,180,3.5,0.0,44,0.00,CLR,,0.00,WeatherDisplay:10.37,2013-04-08 20:57:00,
2013-04-08 16:02:00,44.8,24.2,29.69,SW,225,3.5,3.8,44,0.00,CLR,,0.00,WeatherDisplay:10.37,2013-04-08 21:02:00,
2013-04-08 16:07:00,44.8,24.2,29.69,SSE,158,12.7,12.7,44,0.00,CLR,,0.00,WeatherDisplay:10.37,2013-04-08 21:07:00,
2013-04-08 16:12:00,44.8,24.2,29.69,SSE,158,12.7,12.7,44,0.00,CLR,,0.00,WeatherDisplay:10.37,2013-04-08 21:12:00,
2013-04-08 16:17:00,44.8,24.2,29.69,South,180,12.7,13.0,44,0.00,CLR,,0.00,WeatherDisplay:10.37,2013-04-08 21:17:00,
2013-04-08 16:22:00,44.8,24.2,29.69,South,180,10.4,13.0,44,0.00,CLR,,0.00,WeatherDisplay:10.37,2013-04-08 21:22:00,
2013-04-08 16:27:00,44.8,24.2,29.69,SSE,158,16.1,16.1,44,0.00,CLR,,0.00,WeatherDisplay:10.37,2013-04-08 21:27:00,
2013-04-08 16:32:00,44.8,24.2,29.69,SSE,158,16.1,16.1,44,0.00,CLR,,0.00,WeatherDisplay:10.37,2013-04-08 21:32:00,
2013-04-08 16:37:00,44.8,24.2,29.69,South,180,11.5,17.6,44,0.00,CLR,,0.00,WeatherDisplay:10.37,2013-04-08 21:37:00,
2013-04-08 16:42:00,44.8,24.2,29.69,South,180,11.5,17.6,44,0.00,CLR,,0.00,WeatherDisplay:10.37,2013-04-08 21:42:00,
2013-04-08 16:47:00,44.8,24.2,29.69,South,180,11.5,17.6,44,0.00,CLR,,0.00,WeatherDisplay:10.37,2013-04-08 21:47:00,
2013-04-08 16:52:00,44.8,24.2,29.69,South,180,11.5,17.6,44,0.00,CLR,,0.00,WeatherDisplay:10.37,2013-04-08 21:52:00,
2013-04-08 16:57:00,44.8,24.2,29.69,South,180,11.5,17.6,44,0.00,CLR,,0.00,WeatherDisplay:10.37,2013-04-08 21:57:00,
2013-04-08 17:03:00,44.8,24.2,29.69,SW,225,12.7,12.7,44,0.00,CLR,,0.00,WeatherDisplay:10.37,2013-04-08 22:03:00,
2013-04-08 17:08:00,44.8,24.2,29.69,SW,225,12.7,12.7,44,0.00,CLR,,0.00,WeatherDisplay:10.37,2013-04-08 22:08:00,
2013-04-08 17:13:00,44.8,24.2,29.69,South,180,8.1,13.6,44,0.00,CLR,,0.00,WeatherDisplay:10.37,2013-04-08 22:13:00,
2013-04-08 17:18:00,44.8,24.2,29.69,South,180,8.1,13.6,44,0.00,CLR,,0.00,WeatherDisplay:10.37,2013-04-08 22:18:00,
2013-04-08 17:23:00,44.8,24.2,29.69,South,180,8.1,13.6,44,0.00,CLR,,0.00,WeatherDisplay:10.37,2013-04-08 22:23:00,
2013-04-08 17:28:00,44.8,24.2,29.69,South,180,8.1,13.6,44,0.00,CLR,,0.00,WeatherDisplay:10.37,2013-04-08 22:28:00,
2013-04-08 17:33:00,44.8,24.2,29.69,South,180,15.0,15.9,44,0.00,CLR,,0.00,WeatherDisplay:10.37,2013-04-08 22:33:00,
2013-04-08 17:38:00,44.8,24.2,29.69,South,180,15.0,15.9,44,0.00,CLR,,0.00,WeatherDisplay:10.37,2013-04-08 22:38:00,
2013-04-08 17:43:00,44.8,24.2,29.69,South,180,15.0,15.9,44,0.00,CLR,,0.00,WeatherDisplay:10.37,2013-04-08 22:43:00,
2013-04-08 17:48:00,44.8,24.2,29.69,South,180,15.0,15.9,44,0.00,CLR,,0.00,WeatherDisplay:10.37,2013-04-08 22:48:00,
2013-04-08 17:53:00,44.8,24.2,29.69,South,180,15.0,15.9,44,0.00,CLR,,0.00,WeatherDisplay:10.37,2013-04-08 22:53:00,
2013-04-08 17:58:00,44.8,24.2,29.69,South,180,15.0,15.9,44,0.00,CLR,,0.00,WeatherDisplay:10.37,2013-04-08 22:58:00,
2013-04-08 18:03:00,44.8,24.2,29.69,South,180,15.0,15.9,44,0.00,CLR,,0.00,WeatherDisplay:10.37,2013-04-08 23:03:00,
2013-04-08 18:08:00,44.8,24.2,29.69,South,180,15.0,15.9,44,0.00,CLR,,0.00,WeatherDisplay:10.37,2013-04-08 23:08:00,
2013-04-08 18:13:00,44.8,24.2,29.69,South,180,15.0,15.9,44,0.00,CLR,,0.00,WeatherDisplay:10.37,2013-04-08 23:13:00,
2013-04-08 18:18:00,44.8,24.2,29.69,South,180,15.0,15.9,44,0.00,CLR,,0.00,WeatherDisplay:10.37,2013-04-08 23:18:00,
2013-04-08 18:23:00,44.8,24.2,29.69,South,180,15.0,15.9,44,0.00,CLR,,0.00,WeatherDisplay:10.37,2013-04-08 23:23:00,
2013-04-08 18:29:00,44.8,24.2,29.69,SSW,202,10.4,10.4,44,0.00,CLR,,0.00,WeatherDisplay:10.37,2013-04-08 23:29:00,
2013-04-08 18:34:00,44.8,24.2,29.69,South,180,11.5,11.9,44,0.00,CLR,,0.00,WeatherDisplay:10.37,2013-04-08 23:34:00,
2013-04-08 18:39:00,44.8,24.2,29.69,South,180,11.5,11.9,44,0.00,CLR,,0.00,WeatherDisplay:10.37,2013-04-08 23:39:00,
2013-04-08 18:45:00,44.8,24.2,29.69,South,180,11.5,11.9,44,0.00,CLR,,0.00,WeatherDisplay:10.37,2013-04-08 23:45:00,
2013-04-08 18:50:00,44.8,24.2,29.69,South,180,11.5,11.9,44,0.00,CLR,,0.00,WeatherDisplay:10.37,2013-04-08 23:50:00,
2013-04-08 18:55:00,44.8,24.2,29.69,SSW,202,9.2,12.4,44,0.00,CLR,,0.00,WeatherDisplay:10.37,2013-04-08 23:55:00,
2013-04-08 19:00:00,44.8,24.2,29.69,SSW,202,4.6,10.1,44,0.00,CLR,,0.00,WeatherDisplay:10.37,2013-04-09 00:00:00,
2013-04-08 19:05:00,44.8,24.2,29.69,SSW,202,4.6,10.1,44,0.00,CLR,,0.00,WeatherDisplay:10.37,2013-04-09 00:05:00,
2013-04-08 19:10:00,44.8,24.2,29.69,South,180,0.0,4.3,44,0.00,CLR,,0.00,WeatherDisplay:10.37,2013-04-09 00:10:00,
2013-04-08 19:15:00,44.8,24.2,29.69,South,180,0.0,4.3,44,0.00,CLR,,0.00,WeatherDisplay:10.37,2013-04-09 00:15:00,
2013-04-08 19:20:00,44.8,24.2,29.69,South,180,0.0,4.3,44,0.00,CLR,,0.00,WeatherDisplay:10.37,2013-04-09 00:20:00,
2013-04-08 19:25:00,44.8,24.2,29.69,South,180,0.0,4.3,44,0.00,CLR,,0.00,WeatherDisplay:10.37,2013-04-09 00:25:00,
2013-04-08 19:30:00,44.8,24.2,29.69,South,180,0.0,4.3,44,0.00,CLR,,0.00,WeatherDisplay:10.37,2013-04-09 00:30:00,
2013-04-08 19:35:00,44.8,24.2,29.69,South,180,0.0,4.3,44,0.00,CLR,,0.00,WeatherDisplay:10.37,2013-04-09 00:35:00,
2013-04-08 19:40:00,44.8,32.1,29.69,South,180,0.0,4.3,61,0.00,CLR,,0.00,WeatherDisplay:10.37,2013-04-09 00:40:00,
2013-04-08 19:45:00,44.8,32.1,29.69,South,180,0.0,4.3,61,0.00,CLR,,0.00,WeatherDisplay:10.37,2013-04-09 00:45:00,
2013-04-08 19:50:00,44.8,32.1,29.69,South,180,0.0,4.3,61,0.00,CLR,,0.00,WeatherDisplay:10.37,2013-04-09 00:50:00,
2013-04-08 19:57:00,65.7,54.4,29.74,ESE,112,0.0,0.0,67,0.00,CLR,,0.00,WeatherDisplay:10.37,2013-04-09 00:57:00,
2013-04-08 20:02:00,65.1,54.3,29.74,ESE,112,0.0,0.0,68,0.00,CLR,,0.00,WeatherDisplay:10.37,2013-04-09 01:02:00,
2013-04-08 20:07:00,64.4,54.0,29.74,East,90,0.0,0.0,69,0.00,CLR,,0.00,WeatherDisplay:10.37,2013-04-09 01:07:00,
2013-04-08 20:12:00,63.9,53.5,29.74,East,90,0.0,0.0,69,0.00,CLR,,0.00,WeatherDisplay:10.37,2013-04-09 01:12:00,
2013-04-08 20:17:00,63.9,53.5,29.74,East,90,0.0,0.0,69,0.00,CLR,,0.00,WeatherDisplay:10.37,2013-04-09 01:17:00,
2013-04-08 20:22:00,62.8,53.2,29.74,ESE,112,0.0,0.0,71,0.00,CLR,,0.00,WeatherDisplay:10.37,2013-04-09 01:22:00,
2013-04-08 20:27:00,62.8,53.6,29.74,ESE,112,0.0,0.0,72,0.00,CLR,,0.00,WeatherDisplay:10.37,2013-04-09 01:27:00,
2013-04-08 20:32:00,62.8,54.0,29.75,ESE,112,1.1,1.2,73,0.00,CLR,,0.00,WeatherDisplay:10.37,2013-04-09 01:32:00,
2013-04-08 20:37:00,62.8,54.0,29.75,SE,135,0.3,0.3,73,0.00,CLR,,0.00,WeatherDisplay:10.37,2013-04-09 01:37:00,
2013-04-08 20:42:00,62.6,53.8,29.75,SE,135,0.0,0.0,73,0.00,CLR,,0.00,WeatherDisplay:10.37,2013-04-09 01:42:00,
2013-04-08 20:47:00,62.2,53.1,29.75,East,90,0.0,0.0,72,0.00,CLR,,0.00,WeatherDisplay:10.37,2013-04-09 01:47:00,
2013-04-08 20:52:00,61.3,52.2,29.75,ESE,112,0.0,0.0,72,0.00,CLR,,0.00,WeatherDisplay:10.37,2013-04-09 01:52:00,
2013-04-08 20:57:00,61.0,52.3,29.76,East,90,0.0,0.0,73,0.00,CLR,,0.00,WeatherDisplay:10.37,2013-04-09 01:57:00,
2013-04-08 21:02:00,60.4,52.1,29.75,East,90,0.0,0.0,74,0.00,CLR,,0.00,WeatherDisplay:10.37,2013-04-09 02:02:00,
2013-04-08 21:07:00,59.9,52.0,29.76,ENE,68,0.0,0.0,75,0.00,CLR,,0.00,WeatherDisplay:10.37,2013-04-09 02:07:00,
2013-04-08 21:12:00,59.9,52.3,29.76,East,90,0.0,0.0,76,0.00,CLR,,0.00,WeatherDisplay:10.37,2013-04-09 02:12:00,
2013-04-08 21:17:00,59.7,52.5,29.76,East,90,0.0,0.0,77,0.00,CLR,,0.00,WeatherDisplay:10.37,2013-04-09 02:17:00,
2013-04-08 21:22:00,59.4,52.1,29.76,ESE,112,0.0,0.0,77,0.00,CLR,,0.00,WeatherDisplay:10.37,2013-04-09 02:22:00,
2013-04-08 21:27:00,59.2,52.0,29.76,East,90,0.0,0.0,77,0.00,CLR,,0.00,WeatherDisplay:10.37,2013-04-09 02:27:00,
2013-04-08 21:32:00,58.8,52.0,29.76,East,90,0.0,0.0,78,0.00,CLR,,0.00,WeatherDisplay:10.37,2013-04-09 02:32:00,
2013-04-08 21:37:00,58.6,52.1,29.76,East,90,1.1,0.0,79,0.00,CLR,,0.00,WeatherDisplay:10.37,2013-04-09 02:37:00,
2013-04-08 21:42:00,58.6,52.1,29.76,East,90,0.0,0.0,79,0.00,CLR,,0.00,WeatherDisplay:10.37,2013-04-09 02:42:00,
2013-04-08 21:47:00,59.2,53.4,29.76,ESE,112,0.3,0.3,81,0.00,CLR,,0.00,WeatherDisplay:10.37,2013-04-09 02:47:00,
2013-04-08 21:52:00,59.2,53.4,29.76,ESE,112,2.3,2.3,81,0.00,CLR,,0.00,WeatherDisplay:10.37,2013-04-09 02:52:00,
2013-04-08 21:57:00,59.0,52.8,29.76,ESE,112,0.0,0.0,80,0.00,CLR,,0.00,WeatherDisplay:10.37,2013-04-09 02:57:00,
2013-04-08 22:02:00,59.0,52.8,29.76,ESE,112,0.0,0.0,80,0.00,CLR,,0.00,WeatherDisplay:10.37,2013-04-09 03:02:00,
2013-04-08 22:07:00,58.8,53.0,29.77,ESE,112,0.0,0.0,81,0.00,CLR,,0.00,WeatherDisplay:10.37,2013-04-09 03:07:00,
2013-04-08 22:12:00,58.8,53.0,29.77,ESE,112,0.0,0.0,81,0.00,CLR,,0.00,WeatherDisplay:10.37,2013-04-09 03:12:00,
2013-04-08 22:17:00,58.8,53.0,29.76,ESE,112,0.0,0.0,81,0.00,CLR,,0.00,WeatherDisplay:10.37,2013-04-09 03:17:00,
2013-04-08 22:22:00,58.8,53.3,29.76,ESE,112,0.0,0.0,82,0.00,CLR,,0.00,WeatherDisplay:10.37,2013-04-09 03:22:00,
2013-04-08 22:27:00,59.2,53.7,29.76,ESE,112,0.0,0.0,82,0.00,CLR,,0.00,WeatherDisplay:10.37,2013-04-09 03:27:00,
2013-04-08 22:33:00,59.2,53.7,29.76,ESE,112,0.0,0.0,82,0.00,CLR,,0.00,WeatherDisplay:10.37,2013-04-09 03:33:00,
2013-04-08 22:38:00,59.4,54.2,29.77,ESE,112,0.0,0.0,83,0.00,CLR,,0.00,WeatherDisplay:10.37,2013-04-09 03:38:00,
2013-04-08 22:43:00,59.4,54.2,29.77,East,90,0.0,0.0,83,0.00,CLR,,0.00,WeatherDisplay:10.37,2013-04-09 03:43:00,
2013-04-08 22:48:00,59.4,54.2,29.77,East,90,0.0,0.0,83,0.00,CLR,,0.00,WeatherDisplay:10.37,2013-04-09 03:48:00,
2013-04-08 22:53:00,59.4,54.2,29.77,ENE,68,2.3,2.3,83,0.00,CLR,,0.00,WeatherDisplay:10.37,2013-04-09 03:53:00,
2013-04-08 22:58:00,59.4,54.2,29.77,East,90,3.5,3.5,83,0.00,CLR,,0.00,WeatherDisplay:10.37,2013-04-09 03:58:00,
2013-04-08 23:00:00,59.4,54.2,29.77,East,90,2.3,2.3,83,0.00,CLR,,0.00,WeatherDisplay:10.37,2013-04-09 04:00:00,
2013-04-08 23:05:00,59.7,54.5,29.76,ENE,68,5.8,6.1,83,0.00,CLR,,0.00,WeatherDisplay:10.37,2013-04-09 04:05:00,
2013-04-08 23:10:00,59.9,54.4,29.76,ENE,68,8.1,8.1,82,0.00,CLR,,0.00,WeatherDisplay:10.37,2013-04-09 04:10:00,
2013-04-08 23:15:00,60.1,54.6,29.76,ENE,68,6.9,6.9,82,0.00,CLR,,0.00,WeatherDisplay:10.37,2013-04-09 04:15:00,
2013-04-08 23:20:00,60.3,54.7,29.76,ENE,68,8.1,8.1,82,0.00,CLR,,0.00,WeatherDisplay:10.37,2013-04-09 04:20:00,
2013-04-08 23:25:00,60.4,54.9,29.77,ENE,68,6.9,7.3,82,0.00,CLR,,0.00,WeatherDisplay:10.37,2013-04-09 04:25:00,
2013-04-08 23:30:00,60.6,55.1,29.76,NE,45,6.9,6.9,82,0.00,CLR,,0.00,WeatherDisplay:10.37,2013-04-09 04:30:00,
2013-04-08 23:35:00,60.6,55.4,29.75,NE,45,7.0,7.5,83,0.00,CLR,,0.00,WeatherDisplay:10.37,2013-04-09 04:35:00,
2013-04-08 23:40:00,60.3,55.1,29.74,East,90,6.9,8.5,83,0.00,CLR,,0.00,WeatherDisplay:10.37,2013-04-09 04:40:00,
2013-04-08 23:45:00,59.9,54.7,29.74,ENE,68,8.1,8.1,83,0.00,CLR,,0.00,WeatherDisplay:10.37,2013-04-09 04:45:00,
2013-04-08 23:51:00,59.5,55.0,29.74,NE,45,5.8,6.1,85,0.00,CLR,,0.00,WeatherDisplay:10.37,2013-04-09 04:51:00,
2013-04-08 23:56:00,58.8,54.6,29.74,ENE,68,11.4,11.9,86,0.00,CLR,,0.00,WeatherDisplay:10.37,2013-04-09 04:56:00,